TimeCST,TemperatureF,Dew PointF,Humidity,Sea Level PressureIn,VisibilityMPH,Wind Direction,Wind SpeedMPH,Gust SpeedMPH,PrecipitationIn,Events,Conditions,WindDirDegrees,DateUTC
12:53 AM,46.9,44.1,90,30.21,7.0,Calm,Calm,-,N/A,,Clear,0,2012-11-20 06:53:00
1:53 AM,46.0,44.1,93,30.21,4.0,Calm,Calm,-,N/A,,Clear,0,2012-11-20 07:53:00
2:53 AM,46.0,44.1,93,30.21,5.0,Calm,Calm,-,N/A,,Clear,0,2012-11-20 08:53:00
3:53 AM,46.9,44.1,90,30.22,6.0,Calm,Calm,-,N/A,,Clear,0,2012-11-20 09:53:00
4:53 AM,46.0,44.1,93,30.22,4.0,Calm,Calm,-,N/A,,Clear,0,2012-11-20 10:53:00
5:18 AM,46.4,44.6,93,30.19,2.5,Calm,Calm,-,N/A,,Clear,0,2012-11-20 11:18:00
5:38 AM,46.4,44.6,93,30.20,4.0,Calm,Calm,-,N/A,,Clear,0,2012-11-20 11:38:00
5:53 AM,46.9,45.0,93,30.21,5.0,Calm,Calm,-,N/A,,Clear,0,2012-11-20 11:53:00
6:53 AM,48.0,45.0,89,30.23,5.0,Calm,Calm,-,N/A,,Clear,0,2012-11-20 12:53:00
7:53 AM,51.1,48.0,89,30.25,4.0,Calm,Calm,-,N/A,,Clear,0,2012-11-20 13:53:00
8:53 AM,59.0,54.0,83,30.26,5.0,Calm,Calm,-,N/A,,Haze,0,2012-11-20 14:53:00
9:53 AM,66.9,52.0,59,30.27,8.0,North,4.6,-,N/A,,Clear,10,2012-11-20 15:53:00
10:53 AM,71.1,50.0,47,30.25,10.0,NNW,4.6,-,N/A,,Clear,330,2012-11-20 16:53:00
11:53 AM,73.0,48.0,41,30.22,10.0,ENE,3.5,-,N/A,,Clear,60,2012-11-20 17:53:00
12:53 PM,75.0,46.0,36,30.18,10.0,North,5.8,-,N/A,,Clear,350,2012-11-20 18:53:00
1:53 PM,75.9,46.0,35,30.17,10.0,NW,4.6,-,N/A,,Clear,320,2012-11-20 19:53:00
2:53 PM,77.0,48.0,36,30.16,10.0,NNW,3.5,-,N/A,,Partly Cloudy,330,2012-11-20 20:53:00
3:53 PM,75.0,48.9,40,30.16,10.0,Calm,Calm,-,N/A,,Clear,0,2012-11-20 21:53:00
4:53 PM,66.9,53.1,61,30.16,10.0,Calm,Calm,-,N/A,,Clear,0,2012-11-20 22:53:00
5:53 PM,62.1,51.1,67,30.17,10.0,SW,3.5,-,N/A,,Clear,220,2012-11-20 23:53:00
6:53 PM,60.1,51.1,72,30.19,10.0,SW,3.5,-,N/A,,Clear,220,2012-11-21 00:53:00
7:53 PM,55.9,52.0,87,30.20,10.0,Calm,Calm,-,N/A,,Clear,0,2012-11-21 01:53:00
8:53 PM,54.0,51.1,90,30.21,9.0,Calm,Calm,-,N/A,,Clear,0,2012-11-21 02:53:00
9:53 PM,53.1,50.0,89,30.22,7.0,Calm,Calm,-,N/A,,Clear,0,2012-11-21 03:53:00
10:53 PM,52.0,48.9,89,30.22,4.0,Calm,Calm,-,N/A,,Clear,0,2012-11-21 04:53:00
11:48 PM,51.8,48.2,88,30.19,1.8,Calm,Calm,-,N/A,,Clear,0,2012-11-21 05:48:00
11:53 PM,50.0,48.9,96,30.22,2.0,Calm,Calm,-,N/A,,Clear,0,2012-11-21 05:53:00